Tracking 19570 objects as of 22-Feb-2019
HD Live streaming from Space Station
objects crossing your sky now

SL-8 R/B

Track SL-8 R/B now!
10-day predictions


NORAD ID: 18130
Int'l Code: 1987-054B
Perigee: 969.6 km
Apogee: 996.7 km
Inclination: 82.9 °
Period: 104.6 minutes
Semi major axis: 7354 km
RCS: 5.1592 m2 (large)
Launch date: June 23, 1987
Source: Commonwealth of Independent States (former USSR) (CIS)
Launch site: PLESETSK MISSILE AND SPACE COMPLEX (PKMTR)

Note: This is a ROCKET BODY
aabbcc
Your satellite tracking list
Your tracking list is empty




NASA's NSSDC Master Catalog

Two Line Element Set (TLE):
1 18130U 87054B   19053.17287215  .00000097  00000-0  83434-4 0  9990
2 18130  82.9217  91.5120 0018395  87.2850 273.0412 13.76594448590462
Source of the keplerian elements: AFSPC